TRA663 LOWI-EDDF

Flight info

Callsign TRA663
Flight time 0h 47m
Altitude 32000
Route MOGTI Q163 HAFUN/N0398F240 Q163 ETASA T163 SPESA SPESA4C
Aircraft A21N/M-SDE2E3FGHIRWXY/LB1

Departure

Time 2026-05-01 13:29
Airport Innsbruck Airport (LOWI)

Arrival

Time 2026-05-01 14:16
Airport Frankfurt Main Airport (EDDF)
Time Latitude Longitude Altitude Speed Heading
2026-05-01 13:01 47.25835 11.35177 1908 ft 0 kts 171°
2026-05-01 13:15 47.25840 11.35176 1893 ft 4 kts 171°
2026-05-01 13:15 47.25866 11.35170 1894 ft 3 kts 171°
2026-05-01 13:16 47.25884 11.35169 1900 ft 4 kts 119°
2026-05-01 13:16 47.25888 11.35138 1893 ft 3 kts 81°
2026-05-01 13:16 47.25885 11.35113 1895 ft 0 kts 81°
2026-05-01 13:19 47.25888 11.35139 1893 ft 6 kts 81°
2026-05-01 13:19 47.25894 11.35195 1897 ft 10 kts 81°
2026-05-01 13:19 47.25896 11.35218 1902 ft 11 kts 81°
2026-05-01 13:20 47.25914 11.35279 1892 ft 8 kts 39°
2026-05-01 13:20 47.25983 11.35279 1893 ft 13 kts 350°
2026-05-01 13:21 47.26111 11.35264 1901 ft 1 kts 35°
2026-05-01 13:21 47.26125 11.35337 1894 ft 13 kts 81°
2026-05-01 13:21 47.26139 11.35496 1897 ft 18 kts 80°
2026-05-01 13:21 47.26111 11.35635 1902 ft 12 kts 115°
2026-05-01 13:22 47.26134 11.35735 1888 ft 7 kts 26°
2026-05-01 13:22 47.26161 11.35711 1896 ft 5 kts 303°
2026-05-01 13:22 47.26159 11.35688 1893 ft 0 kts 259°
2026-05-01 13:23 47.26115 11.35321 1904 ft 62 kts 261°
2026-05-01 13:23 47.26054 11.35049 1897 ft 21 kts 208°
2026-05-01 13:23 47.25933 11.35077 1894 ft 17 kts 143°
2026-05-01 13:23 47.25895 11.35181 1897 ft 0 kts 82°
2026-05-01 13:25 47.25973 11.35278 1898 ft 2 kts 349°
2026-05-01 13:25 47.25974 11.35278 1899 ft 0 kts 349°
2026-05-01 13:26 47.26006 11.35269 1905 ft 15 kts 349°
2026-05-01 13:26 47.26110 11.35270 1905 ft 15 kts 37°
2026-05-01 13:26 47.26136 11.35437 1897 ft 19 kts 83°
2026-05-01 13:27 47.26123 11.35608 1902 ft 16 kts 121°
2026-05-01 13:27 47.26129 11.35730 1888 ft 6 kts 33°
2026-05-01 13:27 47.26159 11.35683 1900 ft 0 kts 260°
2026-05-01 13:29 47.26118 11.35325 1905 ft 84 kts 260°
2026-05-01 13:29 47.25813 11.32264 2569 ft 186 kts 263°
2026-05-01 13:30 47.25514 11.25977 5141 ft 222 kts 286°
2026-05-01 13:31 47.26572 11.22277 6465 ft 237 kts 295°
2026-05-01 13:31 47.28624 11.15365 9234 ft 273 kts 294°
2026-05-01 13:32 47.30162 11.09785 10790 ft 305 kts 285°
2026-05-01 13:33 47.30397 11.03775 12816 ft 313 kts 267°
2026-05-01 13:33 47.30124 10.97260 14673 ft 323 kts 268°
2026-05-01 13:34 47.29872 10.90597 16381 ft 331 kts 268°
2026-05-01 13:34 47.30265 10.83852 18033 ft 334 kts 297°
2026-05-01 13:35 47.33276 10.78784 19581 ft 332 kts 323°
2026-05-01 13:35 47.35043 10.76591 20334 ft 334 kts 323°
2026-05-01 13:35 47.38694 10.72303 21720 ft 336 kts 331°
2026-05-01 13:36 47.40746 10.70647 22429 ft 336 kts 339°
2026-05-01 13:36 47.42930 10.69359 23128 ft 338 kts 342°
2026-05-01 13:36 47.47350 10.66797 24410 ft 344 kts 341°
2026-05-01 13:37 47.49593 10.65482 24986 ft 347 kts 341°
2026-05-01 13:37 47.51854 10.64154 25536 ft 351 kts 341°
2026-05-01 13:37 47.54134 10.62816 26107 ft 354 kts 341°
2026-05-01 13:37 47.56433 10.61467 26629 ft 357 kts 341°
2026-05-01 13:38 47.61089 10.58730 27694 ft 362 kts 341°
2026-05-01 13:38 47.63441 10.57348 28192 ft 365 kts 341°
2026-05-01 13:38 47.65814 10.55953 28671 ft 368 kts 341°
2026-05-01 13:39 47.68205 10.54545 29156 ft 371 kts 341°
2026-05-01 13:39 47.70612 10.53127 29625 ft 374 kts 341°
2026-05-01 13:39 47.73046 10.51691 30076 ft 377 kts 341°
2026-05-01 13:39 47.75498 10.50245 30498 ft 379 kts 341°
2026-05-01 13:40 47.77958 10.48792 30908 ft 381 kts 341°
2026-05-01 13:40 47.80388 10.47353 31409 ft 380 kts 340°
2026-05-01 13:40 47.81270 10.46831 31574 ft 380 kts 340°
2026-05-01 13:40 47.83775 10.45347 32072 ft 379 kts 340°
2026-05-01 13:41 47.86256 10.43876 32303 ft 382 kts 340°
2026-05-01 13:41 47.88767 10.42388 32321 ft 394 kts 340°
2026-05-01 13:41 47.91354 10.40854 32316 ft 406 kts 340°
2026-05-01 13:41 47.94015 10.39273 32320 ft 417 kts 340°
2026-05-01 13:42 47.96746 10.37647 32319 ft 428 kts 340°
2026-05-01 13:42 48.02414 10.34264 32319 ft 448 kts 340°
2026-05-01 13:43 48.08313 10.30734 32318 ft 463 kts 340°
2026-05-01 13:43 48.14339 10.27117 32316 ft 464 kts 340°
2026-05-01 13:44 48.20192 10.23074 32314 ft 466 kts 332°
2026-05-01 13:44 48.25581 10.17498 32309 ft 469 kts 322°
2026-05-01 13:45 48.30643 10.11332 32317 ft 469 kts 323°
2026-05-01 13:45 48.35714 10.05170 32315 ft 469 kts 323°
2026-05-01 13:46 48.40782 9.98994 32319 ft 469 kts 322°
2026-05-01 13:46 48.45845 9.92807 32316 ft 468 kts 322°
2026-05-01 13:47 48.50480 9.87129 32303 ft 468 kts 322°
2026-05-01 13:47 48.55528 9.80930 32307 ft 468 kts 322°
2026-05-01 13:48 48.60578 9.74713 32304 ft 468 kts 322°
2026-05-01 13:48 48.65530 9.68278 32301 ft 468 kts 320°
2026-05-01 13:49 48.70419 9.61767 32300 ft 468 kts 320°
2026-05-01 13:49 48.75355 9.55223 32297 ft 469 kts 320°
2026-05-01 13:50 48.80270 9.48712 32296 ft 469 kts 320°
2026-05-01 13:50 48.85176 9.42198 32294 ft 469 kts 320°
2026-05-01 13:51 48.89344 9.36820 32297 ft 468 kts 324°
2026-05-01 13:51 48.94787 9.31422 32297 ft 467 kts 332°
2026-05-01 13:52 49.00557 9.26999 32299 ft 467 kts 335°
2026-05-01 13:52 49.06328 9.22615 32150 ft 453 kts 334°
2026-05-01 13:52 49.09134 9.20472 31308 ft 452 kts 334°
2026-05-01 13:53 49.11967 9.18306 30132 ft 457 kts 334°
2026-05-01 13:53 49.17743 9.14369 28378 ft 446 kts 346°
2026-05-01 13:53 49.20761 9.13529 27988 ft 431 kts 356°
2026-05-01 13:54 49.23714 9.13508 27721 ft 414 kts
2026-05-01 13:54 49.26548 9.13922 27346 ft 408 kts
2026-05-01 13:54 49.29329 9.14318 26821 ft 403 kts
2026-05-01 13:54 49.32167 9.14717 25966 ft 405 kts
2026-05-01 13:55 49.34945 9.15108 25366 ft 404 kts
2026-05-01 13:55 49.37774 9.15507 25040 ft 402 kts
2026-05-01 13:55 49.40573 9.15903 24534 ft 403 kts
2026-05-01 13:55 49.43358 9.16299 24004 ft 400 kts
2026-05-01 13:56 49.46107 9.16690 23439 ft 394 kts
2026-05-01 13:56 49.48813 9.17074 22920 ft 386 kts
2026-05-01 13:56 49.51463 9.17453 22410 ft 379 kts
2026-05-01 13:56 49.54063 9.17825 21910 ft 372 kts
2026-05-01 13:57 49.56593 9.18188 21418 ft 366 kts
2026-05-01 13:57 49.59109 9.18552 20938 ft 361 kts
2026-05-01 13:57 49.61615 9.18917 20442 ft 361 kts
2026-05-01 13:57 49.64130 9.19528 19948 ft 365 kts 19°
2026-05-01 13:58 49.66559 9.21061 19479 ft 383 kts 26°
2026-05-01 13:58 49.68979 9.22724 19003 ft 380 kts 26°
2026-05-01 13:58 49.71342 9.24365 18529 ft 374 kts 26°
2026-05-01 13:58 49.73731 9.25958 17982 ft 375 kts 20°
2026-05-01 13:59 49.76333 9.26609 17453 ft 376 kts
2026-05-01 13:59 49.78875 9.25933 16941 ft 377 kts 341°
2026-05-01 13:59 49.81166 9.23979 16438 ft 379 kts 321°
2026-05-01 13:59 49.82982 9.21029 15946 ft 378 kts 310°
2026-05-01 14:00 49.84646 9.17886 15453 ft 375 kts 309°
2026-05-01 14:00 49.86313 9.14727 14962 ft 372 kts 310°
2026-05-01 14:00 49.87948 9.11659 14485 ft 372 kts 310°
2026-05-01 14:00 49.89623 9.08549 13999 ft 371 kts 310°
2026-05-01 14:01 49.90892 9.06119 13574 ft 369 kts 306°
2026-05-01 14:01 49.91517 9.04658 13346 ft 368 kts 301°
2026-05-01 14:01 49.92654 9.01026 12830 ft 363 kts 289°
2026-05-01 14:01 49.93381 8.97356 12320 ft 358 kts 285°
2026-05-01 14:02 49.94061 8.93740 11830 ft 354 kts 285°
2026-05-01 14:02 49.94770 8.90017 11321 ft 352 kts 285°
2026-05-01 14:02 49.95466 8.86382 10836 ft 350 kts 285°
2026-05-01 14:02 49.96155 8.82771 10358 ft 346 kts 285°
2026-05-01 14:03 49.96832 8.79209 9859 ft 341 kts 284°
2026-05-01 14:03 49.97498 8.75687 9341 ft 338 kts 284°
2026-05-01 14:03 49.97878 8.72125 8815 ft 331 kts 267°
2026-05-01 14:03 49.97524 8.68657 8315 ft 322 kts 249°
2026-05-01 14:04 49.96746 8.65435 7815 ft 317 kts 246°
2026-05-01 14:04 49.95969 8.62247 7339 ft 314 kts 246°
2026-05-01 14:04 49.95202 8.59079 6847 ft 312 kts 247°
2026-05-01 14:04 49.94700 8.56995 6523 ft 309 kts 247°
2026-05-01 14:05 49.93692 8.52789 5839 ft 306 kts 246°
2026-05-01 14:05 49.92950 8.49704 5366 ft 304 kts 246°
2026-05-01 14:05 49.92212 8.46634 4874 ft 303 kts 246°
2026-05-01 14:05 49.91496 8.43665 4681 ft 292 kts 246°
2026-05-01 14:06 49.90800 8.40782 4580 ft 279 kts 246°
2026-05-01 14:06 49.90130 8.38013 4435 ft 268 kts 246°
2026-05-01 14:06 49.89469 8.35275 4388 ft 275 kts 246°
2026-05-01 14:06 49.88801 8.32518 4319 ft 270 kts 246°
2026-05-01 14:07 49.88136 8.29795 4264 ft 270 kts 246°
2026-05-01 14:07 49.87477 8.27079 4203 ft 266 kts 246°
2026-05-01 14:07 49.86828 8.24381 4173 ft 270 kts 249°
2026-05-01 14:08 49.87315 8.18903 4176 ft 250 kts 309°
2026-05-01 14:08 49.88632 8.17368 4175 ft 228 kts 343°
2026-05-01 14:08 49.90083 8.16635 4183 ft 213 kts 343°
2026-05-01 14:08 49.91432 8.15982 4273 ft 194 kts 352°
2026-05-01 14:09 49.92684 8.16101 4268 ft 171 kts 26°
2026-05-01 14:09 49.93656 8.17104 4266 ft 166 kts 53°
2026-05-01 14:09 49.94298 8.18537 4335 ft 156 kts 68°
2026-05-01 14:09 49.94756 8.20129 4365 ft 171 kts 73°
2026-05-01 14:10 49.95197 8.21899 4359 ft 177 kts 75°
2026-05-01 14:10 49.95625 8.23688 4289 ft 176 kts 74°
2026-05-01 14:10 49.96052 8.25460 4068 ft 173 kts 74°
2026-05-01 14:10 49.96471 8.27207 3844 ft 173 kts 73°
2026-05-01 14:11 49.96890 8.28954 3608 ft 172 kts 73°
2026-05-01 14:11 49.97715 8.32384 3147 ft 164 kts 73°
2026-05-01 14:11 49.98095 8.33956 2939 ft 149 kts 73°
2026-05-01 14:12 49.98451 8.35431 2757 ft 143 kts 75°
2026-05-01 14:12 49.98774 8.36796 2573 ft 128 kts 74°
2026-05-01 14:12 49.99081 8.38088 2423 ft 128 kts 74°
2026-05-01 14:12 49.99405 8.39451 2229 ft 137 kts 73°
2026-05-01 14:13 49.99737 8.40809 2049 ft 129 kts 74°
2026-05-01 14:13 49.99938 8.41659 1932 ft 127 kts 74°
2026-05-01 14:13 50.00363 8.43441 1693 ft 128 kts 74°
2026-05-01 14:13 50.00670 8.44740 1521 ft 128 kts 73°
2026-05-01 14:14 50.00988 8.46064 1350 ft 130 kts 72°
2026-05-01 14:14 50.01300 8.47344 1184 ft 121 kts 73°
2026-05-01 14:14 50.01587 8.48559 1015 ft 118 kts 73°
2026-05-01 14:14 50.01881 8.49788 864 ft 127 kts 73°
2026-05-01 14:15 50.02191 8.51082 692 ft 129 kts 73°
2026-05-01 14:15 50.02507 8.52336 525 ft 120 kts 73°
2026-05-01 14:15 50.02805 8.53612 392 ft 129 kts 73°
2026-05-01 14:15 50.03123 8.54952 362 ft 128 kts 73°
2026-05-01 14:16 50.03394 8.56105 362 ft 91 kts 70°
2026-05-01 14:16 50.03561 8.56787 355 ft 55 kts 66°
2026-05-01 14:16 50.03718 8.57105 362 ft 25 kts 40°
2026-05-01 14:16 50.03786 8.57190 360 ft 2 kts 39°
2026-05-01 14:17 50.03789 8.57194 360 ft 0 kts 39°
2026-05-01 14:17 50.03792 8.57198 360 ft 4 kts 40°
2026-05-01 14:17 50.03846 8.57266 363 ft 13 kts 38°
2026-05-01 14:17 50.03930 8.57377 361 ft 17 kts 43°
2026-05-01 14:18 50.03989 8.57548 362 ft 19 kts 70°
2026-05-01 14:18 50.04041 8.57749 364 ft 21 kts 61°
2026-05-01 14:18 50.04090 8.57969 362 ft 22 kts 76°
2026-05-01 14:18 50.04125 8.58124 361 ft 23 kts 69°
2026-05-01 14:19 50.04202 8.58438 363 ft 24 kts 69°
2026-05-01 14:19 50.04261 8.58687 364 ft 25 kts 70°
2026-05-01 14:19 50.04321 8.58948 368 ft 26 kts 68°
2026-05-01 14:19 50.04388 8.59216 368 ft 27 kts 70°
2026-05-01 14:20 50.04457 8.59449 367 ft 20 kts 45°
2026-05-01 14:20 50.04754 8.59411 364 ft 23 kts 340°
2026-05-01 14:20 50.04843 8.59282 361 ft 15 kts 276°
2026-05-01 14:21 50.04830 8.59185 367 ft 11 kts 258°
2026-05-01 14:21 50.04868 8.59128 361 ft 8 kts 340°
2026-05-01 14:21 50.04886 8.59118 361 ft 3 kts 339°
2026-05-01 14:22 50.04901 8.59109 367 ft 0 kts 340°